Location: Wildlife_Club
(35.6000°N, 81.4330°W)
Time: 12:46:02
(UTC-04:00)

ISS - Pass Details

Date: 24 May 2019
Orbit: 408 x 418 km, 51.6° (Epoch: 18 June)

Event Time Altitude Azimuth Distance (km) Brightness Sun altitude
Rises 21:08:16 0° 282° (WNW) 2,343 1.6 -7.5°
Reaches altitude 10° 21:11:50 10° 323° (NW) 1,487 0.4 -8.1°
Maximum altitude 21:12:42 11° 338° (NNW) 1,444 -0.1 -8.3°
Drops below altitude 10° 21:13:34 10° 353° (N) 1,490 -0.4 -8.4°
Sets 21:17:10 0° 33° (NNE) 2,360 0.1 -9.0°
